Regional Weather Roundup
Issued by NWS Sterling, VA

Home | Current Version | Previous Version | Graphics & Text | Print | Product List | Glossary On
Versions: 1 2 3 4 5 6 7 8 9 10 11 12 13 14 15 16 17 18 19 20 21 22 23 24 25 26 27 28 29 30 31 32 33 34 35 36 37 38 39 40 41 42 43 44 45 46 47 48 49 50
000
ASUS41 KLWX 261510
RWRLWX

REGIONAL WEATHER ROUNDUP
NATIONAL WEATHER SERVICE BALTIMORE MD/WASHINGTON DC
1100 AM EDT SUN APR 26 2015

Note: "FAIR" indicates few or no clouds below 12,000 feet
with no significant weather and/or obstructions to visibility.
 TC=TEMPERATURE CELSIUS

 * =Non NWS site. Station does not report precipitation (e.g. rain,
    snow, etc.), thunder, or fog.

DCZ001-MDZ009-015-VAZ040>042-051-053>054-261600-
WASHINGTON METRO

CITY           SKY/WX    TMP DP  RH WIND       PRES   REMARKS
WASHINGTON NAT MOSUNNY   57  37  47 NE5       29.73R
DULLES         MOSUNNY   55  37  50 N10       29.73R
ANDREWS AFB    PTSUNNY   53  38  56 N7        29.71R
FT BELVOIR     MOSUNNY   55  39  54 VRB2      29.73R
QUANTICO       CLOUDY    53  38  56 E8        29.74R
COLLEGE PARK*  SUNNY     55  34  44 N7        29.71S
LEESBURG*      MOSUNNY   54  37  54 N9        29.75R
MANASSAS*      SUNNY     54  37  54 NE3       29.73S
GAITHERSBURG*  SUNNY     55  34  44 N5        29.75S

$$

MDZ006>007-011-014-261600-
BALTIMORE METRO

CITY           SKY/WX    TMP DP  RH WIND       PRES   REMARKS
BWI AIRPORT    MOSUNNY   56  31  38 N3        29.71R
MD SCIENCE CTR   N/A     57  29  34 MISG      29.72R
MARTIN STATE   MOSUNNY   57  34  41 NE7       29.73R
ANNAPOLIS      SUNNY     53  33  46 N6        29.71R
FORT MEADE*    SUNNY     55  34  44 NE6       29.74S

$$

MDZ012-015-019>023-261600-
MARYLAND EASTERN SHORE

CITY           SKY/WX    TMP DP  RH WIND       PRES   REMARKS
OCEAN CITY     MOSUNNY   53  40  61 NE6       29.69R
SALISBURY      MOSUNNY   52  41  66 NW6       29.69R
BAY BRIDGE AP*   N/A    N/A N/A N/A N9        29.72R
CAMBRIDGE*     SUNNY     54  43  66 NW6       29.70R
EASTON*        SUNNY     55  41  58 NE8       29.74R

$$

MDZ017>025-261600-
SOUTHERN MARYLAND

CITY           SKY/WX    TMP DP  RH WIND       PRES   REMARKS
PATUXENT RIVER PTSUNNY   51  41  68 NW7       29.71R
ST INIGOES     MOSUNNY   53  41  63 NW5       29.71R
LEONARDTOWN*   NOT AVBL

$$

MDZ003>005-261600-
NORTH CENTRAL MARYLAND

CITY           SKY/WX    TMP DP  RH WIND       PRES   REMARKS
FREDERICK*     SUNNY     57  30  35 NE9       29.76
HAGERSTOWN APT SUNNY     53  29  39 N14       29.74R
WESTMINSTER*   SUNNY     52  28  40 N7        29.72S

$$

MDZ501>502-261600-
WESTERN MARYLAND

CITY           SKY/WX    TMP DP  RH WIND       PRES   REMARKS
OAKLAND*       SUNNY     45  34  65 E6        29.72R
CUMBERLAND*    SUNNY     54  32  43 CALM      29.79S

$$

VAZ025>031-261600-
SHENANDOAH VALLEY

CITY           SKY/WX    TMP DP  RH WIND       PRES   REMARKS
WINCHESTER*    MOSUNNY   52  32  46 CALM      29.75R
FRONT ROYAL*   PTSUNNY   46  39  76 N3        29.75R
LURAY*         CLOUDY    50  41  71 N5        29.76R
NEW MARKET*    CLOUDY    46  39  74 CALM      29.75R
STAUNTON*      CLOUDY    46  40  78 N6        29.77R
WAYNESBORO*    CLOUDY    42  40  91 N5        29.74R

$$

WVZ021-048>050-054>055-261600-
EASTERN WEST VIRGINIA PANHANDLE

CITY           SKY/WX    TMP DP  RH WIND       PRES   REMARKS
MARTINSBURG    SUNNY     54  32  43 N7        29.75R
PETERSBURG*    MOSUNNY   49  37  61 CALM      29.78R

$$

VAZ036>039-050-261600-
CENTRAL FOOTHILLS

CITY           SKY/WX    TMP DP  RH WIND       PRES   REMARKS
CHARLOTTESVILL CLOUDY    48  41  76 CALM      29.74R
CULPEPER*      PTSUNNY   54  39  58 CALM      29.75R
ORANGE*        CLOUDY    50  43  76 N6        29.75S
GORDONSVILLE*  CLOUDY    48  40  74 NE3       29.74R
WARRENTON*     FAIR      54  41  61 N5        29.74R

$$

VAZ055>057-261600-
NORTH AND CENTRAL PIEDMONT

CITY           SKY/WX    TMP DP  RH WIND       PRES   REMARKS
FREDERICKSBRG* CLOUDY    52  42  68 W7        29.73R
STAFFORD*      CLOUDY    52  39  61 W7        29.77R

$$

NCZ024-NYZ072-PAZ021-071-VAZ022-071-261600-
OTHER REGIONAL OBSERVATIONS

CITY           SKY/WX    TMP DP  RH WIND       PRES   REMARKS
NEW YORK CITY  SUNNY     56  27  32 E7        29.73S
PHILADELPHIA   MOSUNNY   57  33  40 NE9G18    29.72R
PITTSBURGH     MOSUNNY   52  27  38 N9        29.78R
ROANOKE        CLOUDY    45  41  86 NE5       29.76R
RICHMOND       CLOUDY    49  42  77 N8        29.73R
RALEIGH        CLOUDY    48  45  89 NE8       29.70R

$$

ANZ530>537-261600-
MARINE OBSERVATIONS

STATION/POSITION TIME  TEMP    WIND        PRES
                       AIR SEA DIR/SP/G
                 (UTC) (F)     (DEG/KT/KT) (MB)
THOMAS PT LIGHT  1500   50 51  360/ 10/ 11 1007.0R
BALT KEY BRIDGE  1400   52      10/  7/  8 1005.7R
COVE POINT       1400   46     350/ 12/ 14 1006.3R
LEWISETTA        1400   49 55              1005.5R
SOLOMONS ISLAND  1400      54                N/A
PINEY POINT      1400          330/  7/  8   N/A

$$




USA.gov is the U.S. government's official web portal to all federal, state and local government web resources and services.